Flag for U.S.A. Weather past 2 weeks in Topeka, Kansas, U.S.A.

Now
67 °F

Overcast.


Feels Like: 67 °F
Forecast: 60 / 73 °F
Wind: 10 mph from Southwest

Location: Philip Billard Municipal Airport

Current Time: Oct 23, 2014 at 12:18:11 PM

Latest Report: Oct 23, 2014 at 11:53 AM


Visibility: 10 mi

Pressure: 30.09 "Hg

Humidity: 85%

Dew point: 62 °F

Location of TopekaLocation

Historic Weather in Topeka — Graph

°F

Topeka temperature yesterday

Maximum temperature yesterday: 79 °F (at 3:53 PM)
Minimum temperature yesterday: 53 °F (at 5:53 AM)
Average temperature yesterday: 65 °F

Past Weeks' High & Low Weather Summary

 TemperatureHumidityPressure
High80 °F (Oct 16, 3:53 PM)100% (Oct 9, 5:53 PM)32.00 "Hg (Oct 9, 5:53 PM)
Low38 °F (Oct 21, 7:02 AM)30% (Oct 21, 2:53 PM)29.57 "Hg (Oct 13, 2:53 PM)
Average57 °F73%30.00 "Hg
* Reported Oct 8 10:53 AM — Oct 23 10:53 AM, Topeka, Weather by CustomWeather, © 2014

Note: Actual official high and low records may vary slightly from our data, if they occured in-between our weather recording intervals... More about our weather records

Advertising

Topeka weather history for previous 24 hours

 ConditionsComfort  
Time TempWeatherWind HumidityBarometerVisibility
10:53 AM
Oct 23
65 °FOvercast.10 mph91%30.08 "Hg10 mi
9:53 AM63 °FLow clouds.9 mph93%30.07 "Hg10 mi
8:53 AM63 °FOvercast.8 mph90%30.06 "Hg10 mi
7:53 AM62 °FOvercast.9 mph93%30.06 "Hg10 mi
6:53 AM61 °FLight rain. Fog.6 mph97%30.08 "Hg4 mi
5:53 AM62 °FLight rain. Passing clouds.9 mph96%30.07 "Hg9 mi
5:03 AM62 °FHeavy rain. Fog.13 mph96%30.10 "Hg2 mi
4:53 AM63 °FHeavy rain. Fog.9 mph93%30.09 "Hg4 mi
3:53 AM63 °FHeavy rain. Fog.3 mph97%30.09 "Hg2 mi
2:53 AM63 °FRain. Fog.8 mph97%30.08 "Hg4 mi
2:00 AM63 °FLight rain. Fog.3 mph97%30.09 "Hg3 mi
12:53 AM64 °FRain. Fog.No wind90%30.07 "Hg4 mi
11:53 PM
Oct 22
67 °FOvercast.10 mph73%30.06 "Hg10 mi
10:53 PM67 °FPassing clouds.14 mph73%30.06 "Hg10 mi
9:53 PM68 °FPassing clouds.10 mph70%30.07 "Hg10 mi
8:53 PM68 °FPassing clouds.10 mph70%30.06 "Hg10 mi
7:53 PM68 °FPassing clouds.8 mph73%30.06 "Hg10 mi
6:53 PM71 °FSunny.8 mph68%30.04 "Hg10 mi
5:53 PM74 °FPassing clouds.10 mph62%30.03 "Hg10 mi
4:53 PM77 °FSunny.13 mph54%30.03 "Hg10 mi
3:53 PM79 °FPartly sunny.14 mph45%30.04 "Hg10 mi
2:53 PM78 °FPassing clouds.14 mph50%30.05 "Hg10 mi
1:53 PM77 °FSunny.9 mph52%30.08 "Hg10 mi
12:53 PM73 °FSunny.12 mph57%30.11 "Hg10 mi
Weather by CustomWeather, © 2014

See weather overviewHow to use our weather pages